timestamp,wind_dir_avg,wind_spd_max_dir,wind_spd_avg,wind_spd_gust,battery_voltage,lat,long
2018-07-08 00:00:00+00:00,299.0,295.0,8.25,9.47,,47.59359,-54.27349
2018-07-08 00:10:00+00:00,298.0,301.0,7.02,7.4,,47.59359,-54.27349
2018-07-08 00:20:00+00:00,297.0,298.0,6.4,7.72,,47.59359,-54.27349
2018-07-08 00:30:00+00:00,293.0,291.0,6.88,7.39,,47.59359,-54.27349
2018-07-08 00:40:00+00:00,291.0,290.0,6.24,6.71,,47.59359,-54.27349
2018-07-08 00:50:00+00:00,288.0,289.0,5.17,5.54,,47.59359,-54.27349
2018-07-08 01:00:00+00:00,284.0,286.0,5.81,6.13,,47.59359,-54.27349
2018-07-08 01:10:00+00:00,276.0,279.0,5.11,5.64,,47.59359,-54.27349
2018-07-08 01:20:00+00:00,276.0,276.0,5.13,5.6,,47.59359,-54.27349
2018-07-08 01:30:00+00:00,281.0,280.0,5.68,6.12,,47.59359,-54.27349
2018-07-08 01:40:00+00:00,288.0,290.0,5.26,6.16,,47.59359,-54.27349
2018-07-08 01:50:00+00:00,290.0,289.0,5.95,6.77,,47.59359,-54.27349
2018-07-08 02:00:00+00:00,289.0,291.0,6.24,6.99,,47.59359,-54.27349
2018-07-08 02:10:00+00:00,288.0,286.0,6.41,7.37,,47.59359,-54.27349
2018-07-08 02:20:00+00:00,295.0,299.0,6.74,8.35,,47.59359,-54.27349
2018-07-08 02:30:00+00:00,291.0,299.0,6.24,7.58,,47.59359,-54.27349
2018-07-08 02:40:00+00:00,281.0,281.0,6.15,6.67,,47.59359,-54.27349
2018-07-08 02:50:00+00:00,276.0,276.0,6.05,6.62,,47.59359,-54.27349
2018-07-08 03:00:00+00:00,278.0,279.0,5.35,5.74,,47.59359,-54.27349
2018-07-08 03:10:00+00:00,274.0,276.0,5.71,6.08,,47.59359,-54.27349
2018-07-08 03:20:00+00:00,271.0,271.0,5.53,6.02,,47.59359,-54.27349
2018-07-08 03:30:00+00:00,269.0,272.0,5.95,6.23,,47.59359,-54.27349
2018-07-08 03:40:00+00:00,241.0,244.0,4.49,5.48,,47.59359,-54.27349
2018-07-08 03:50:00+00:00,224.0,227.0,3.71,4.67,,47.59359,-54.27349
2018-07-08 04:00:00+00:00,221.0,225.0,6.04,7.42,,47.59359,-54.27349
2018-07-08 04:10:00+00:00,214.0,215.0,6.28,7.15,,47.59359,-54.27349
2018-07-08 04:20:00+00:00,220.0,220.0,7.03,7.51,,47.59359,-54.27349
2018-07-08 04:30:00+00:00,219.0,218.0,7.79,8.24,,47.59359,-54.27349
2018-07-08 04:40:00+00:00,224.0,222.0,7.38,8.13,,47.59359,-54.27349
2018-07-08 04:50:00+00:00,228.0,230.0,6.61,7.11,,47.59359,-54.27349
2018-07-08 05:00:00+00:00,223.0,222.0,7.26,7.75,,47.59359,-54.27349
2018-07-08 05:10:00+00:00,224.0,226.0,8.25,8.92,,47.59359,-54.27349
2018-07-08 05:20:00+00:00,229.0,227.0,7.44,8.31,,47.59359,-54.27349
2018-07-08 05:30:00+00:00,225.0,225.0,7.51,7.95,,47.59359,-54.27349
2018-07-08 05:40:00+00:00,227.0,228.0,7.4,7.95,,47.59359,-54.27349
2018-07-08 05:50:00+00:00,228.0,226.0,5.99,6.34,,47.59359,-54.27349
2018-07-08 06:00:00+00:00,229.0,231.0,6.3,6.7,,47.59359,-54.27349
2018-07-08 06:10:00+00:00,234.0,234.0,6.54,7.07,,47.59359,-54.27349
2018-07-08 06:20:00+00:00,229.0,228.0,7.38,7.89,,47.59359,-54.27349
2018-07-08 06:30:00+00:00,228.0,229.0,6.68,7.02,,47.59359,-54.27349
2018-07-08 06:40:00+00:00,233.0,236.0,6.48,7.07,,47.59359,-54.27349
2018-07-08 06:50:00+00:00,221.0,225.0,5.36,6.01,,47.59359,-54.27349
2018-07-08 07:00:00+00:00,219.0,218.0,6.79,7.4,,47.59359,-54.27349
2018-07-08 07:10:00+00:00,226.0,227.0,5.76,6.41,,47.59359,-54.27349
2018-07-08 07:20:00+00:00,231.0,235.0,5.45,6.16,,47.59359,-54.27349
2018-07-08 07:30:00+00:00,233.0,235.0,6.48,7.15,,47.59359,-54.27349
2018-07-08 07:40:00+00:00,234.0,232.0,7.09,8.04,,47.59359,-54.27349
2018-07-08 07:50:00+00:00,244.0,242.0,7.89,9.03,,47.59359,-54.27349
2018-07-08 08:00:00+00:00,235.0,235.0,5.99,6.87,,47.59359,-54.27349
2018-07-08 08:10:00+00:00,243.0,247.0,7.32,8.24,,47.59359,-54.27349
2018-07-08 08:20:00+00:00,250.0,251.0,7.47,8.29,,47.59359,-54.27349
2018-07-08 08:30:00+00:00,242.0,244.0,6.45,7.21,,47.59359,-54.27349
2018-07-08 08:40:00+00:00,240.0,243.0,6.71,7.43,,47.59359,-54.27349
2018-07-08 08:50:00+00:00,241.0,238.0,6.33,7.37,,47.59359,-54.27349
2018-07-08 09:00:00+00:00,234.0,232.0,6.9,7.6,,47.59359,-54.27349
2018-07-08 09:10:00+00:00,234.0,233.0,6.25,7.33,,47.59359,-54.27349
2018-07-08 09:20:00+00:00,232.0,234.0,6.18,6.75,,47.59359,-54.27349
2018-07-08 09:30:00+00:00,218.0,223.0,6.06,6.75,,47.59359,-54.27349
2018-07-08 09:40:00+00:00,232.0,229.0,7.73,8.31,,47.59359,-54.27349
2018-07-08 09:50:00+00:00,226.0,221.0,7.08,7.81,,47.59359,-54.27349
2018-07-08 10:00:00+00:00,230.0,231.0,7.38,8.03,,47.59359,-54.27349
2018-07-08 10:10:00+00:00,220.0,222.0,8.49,9.09,,47.59359,-54.27349
2018-07-08 10:20:00+00:00,225.0,226.0,8.4,9.06,,47.59359,-54.27349
2018-07-08 10:30:00+00:00,224.0,226.0,9.85,10.93,,47.59359,-54.27349
2018-07-08 10:40:00+00:00,222.0,221.0,9.53,10.54,,47.59359,-54.27349
2018-07-08 10:50:00+00:00,229.0,228.0,8.86,9.78,,47.59359,-54.27349
2018-07-08 11:00:00+00:00,224.0,220.0,9.27,9.99,,47.59359,-54.27349
2018-07-08 11:10:00+00:00,229.0,232.0,8.85,9.87,,47.59359,-54.27349
2018-07-08 11:20:00+00:00,221.0,221.0,9.0,9.73,,47.59359,-54.27349
2018-07-08 11:30:00+00:00,216.0,216.0,8.56,9.46,,47.59359,-54.27349
2018-07-08 11:40:00+00:00,216.0,218.0,9.15,10.15,,47.59359,-54.27349
2018-07-08 11:50:00+00:00,214.0,216.0,8.61,9.38,,47.59359,-54.27349
2018-07-08 12:00:00+00:00,216.0,216.0,9.83,10.61,,47.59359,-54.27349
2018-07-08 12:10:00+00:00,214.0,218.0,9.35,10.24,,47.59359,-54.27349
2018-07-08 12:20:00+00:00,210.0,214.0,8.59,9.34,,47.59359,-54.27349
2018-07-08 12:30:00+00:00,205.0,208.0,8.15,9.01,,47.59359,-54.27349
2018-07-08 12:40:00+00:00,198.0,203.0,7.87,8.69,,47.59359,-54.27349
2018-07-08 12:50:00+00:00,213.0,213.0,8.84,10.18,,47.59359,-54.27349
2018-07-08 13:00:00+00:00,220.0,220.0,9.46,10.29,,47.59359,-54.27349
2018-07-08 13:10:00+00:00,219.0,218.0,9.72,10.69,,47.59359,-54.27349
2018-07-08 13:20:00+00:00,218.0,218.0,9.04,10.0,,47.59359,-54.27349
2018-07-08 13:30:00+00:00,220.0,219.0,10.08,11.19,,47.59359,-54.27349
2018-07-08 13:40:00+00:00,221.0,220.0,10.56,11.87,,47.59359,-54.27349
2018-07-08 13:50:00+00:00,220.0,222.0,11.4,12.96,,47.59359,-54.27349
2018-07-08 14:00:00+00:00,222.0,227.0,11.68,12.78,,47.59359,-54.27349
2018-07-08 14:10:00+00:00,221.0,226.0,10.97,12.51,,47.59359,-54.27349
2018-07-08 14:20:00+00:00,218.0,214.0,10.91,11.84,,47.59359,-54.27349
2018-07-08 14:30:00+00:00,217.0,219.0,9.88,11.1,,47.59359,-54.27349
2018-07-08 14:40:00+00:00,221.0,224.0,10.41,11.34,,47.59359,-54.27349
2018-07-08 14:50:00+00:00,219.0,221.0,10.8,12.28,,47.59359,-54.27349
2018-07-08 15:00:00+00:00,220.0,219.0,11.76,13.08,,47.59359,-54.27349
2018-07-08 15:10:00+00:00,220.0,222.0,12.83,14.31,,47.59359,-54.27349
2018-07-08 15:20:00+00:00,219.0,221.0,12.63,14.6,,47.59359,-54.27349
2018-07-08 15:30:00+00:00,220.0,224.0,13.34,14.68,,47.59359,-54.27349
2018-07-08 15:40:00+00:00,218.0,216.0,12.27,14.24,,47.59359,-54.27349
2018-07-08 15:50:00+00:00,217.0,217.0,12.2,13.66,,47.59359,-54.27349
2018-07-08 16:00:00+00:00,217.0,218.0,12.51,14.2,,47.59359,-54.27349
2018-07-08 16:10:00+00:00,218.0,218.0,12.46,13.7,,47.59359,-54.27349
2018-07-08 16:20:00+00:00,217.0,218.0,12.38,14.19,,47.59359,-54.27349
2018-07-08 16:30:00+00:00,218.0,221.0,12.22,13.72,,47.59359,-54.27349
2018-07-08 16:40:00+00:00,219.0,221.0,12.57,13.73,,47.59359,-54.27349
2018-07-08 16:50:00+00:00,218.0,218.0,11.99,12.95,,47.59359,-54.27349
2018-07-08 17:00:00+00:00,219.0,219.0,11.22,12.66,,47.59359,-54.27349
2018-07-08 17:10:00+00:00,220.0,224.0,11.3,12.64,,47.59359,-54.27349
2018-07-08 17:20:00+00:00,219.0,222.0,11.6,13.67,,47.59359,-54.27349
2018-07-08 17:30:00+00:00,220.0,220.0,11.19,13.61,,47.59359,-54.27349
2018-07-08 17:40:00+00:00,218.0,216.0,11.68,13.18,,47.59359,-54.27349
2018-07-08 17:50:00+00:00,218.0,218.0,11.58,12.68,,47.59359,-54.27349
2018-07-08 18:00:00+00:00,221.0,220.0,10.64,12.17,,47.59359,-54.27349
2018-07-08 18:10:00+00:00,218.0,219.0,10.66,11.87,,47.59359,-54.27349
2018-07-08 18:20:00+00:00,220.0,221.0,10.56,11.99,,47.59359,-54.27349
2018-07-08 18:30:00+00:00,220.0,217.0,11.07,12.38,,47.59359,-54.27349
2018-07-08 18:40:00+00:00,217.0,217.0,11.45,12.88,,47.59359,-54.27349
2018-07-08 18:50:00+00:00,215.0,215.0,10.42,11.96,,47.59359,-54.27349
2018-07-08 19:00:00+00:00,219.0,217.0,9.98,11.84,,47.59359,-54.27349
2018-07-08 19:10:00+00:00,218.0,218.0,9.91,11.07,,47.59359,-54.27349
2018-07-08 19:20:00+00:00,216.0,215.0,9.68,10.89,,47.59359,-54.27349
2018-07-08 19:30:00+00:00,222.0,223.0,10.77,11.88,,47.59359,-54.27349
2018-07-08 19:40:00+00:00,223.0,221.0,12.15,13.75,,47.59359,-54.27349
2018-07-08 19:50:00+00:00,222.0,224.0,12.12,13.13,,47.59359,-54.27349
2018-07-08 20:00:00+00:00,222.0,222.0,11.8,12.77,,47.59359,-54.27349
2018-07-08 20:10:00+00:00,220.0,219.0,10.49,11.61,,47.59359,-54.27349
2018-07-08 20:20:00+00:00,221.0,222.0,10.91,12.22,,47.59359,-54.27349
2018-07-08 20:30:00+00:00,222.0,223.0,10.52,11.91,,47.59359,-54.27349
2018-07-08 20:40:00+00:00,223.0,224.0,11.19,12.26,,47.59359,-54.27349
2018-07-08 20:50:00+00:00,220.0,219.0,10.46,11.44,,47.59359,-54.27349
2018-07-08 21:00:00+00:00,222.0,223.0,10.03,11.31,,47.59359,-54.27349
2018-07-08 21:10:00+00:00,222.0,226.0,9.63,11.03,,47.59359,-54.27349
2018-07-08 21:20:00+00:00,219.0,221.0,9.22,10.04,,47.59359,-54.27349
2018-07-08 21:30:00+00:00,216.0,216.0,9.45,10.28,,47.59359,-54.27349
2018-07-08 21:40:00+00:00,217.0,216.0,9.83,10.68,,47.59359,-54.27349
2018-07-08 21:50:00+00:00,218.0,216.0,9.54,10.41,,47.59359,-54.27349
2018-07-08 22:00:00+00:00,219.0,212.0,8.18,9.21,,47.59359,-54.27349
2018-07-08 22:10:00+00:00,219.0,218.0,7.99,8.99,,47.59359,-54.27349
2018-07-08 22:20:00+00:00,221.0,223.0,9.48,10.54,,47.59359,-54.27349
2018-07-08 22:30:00+00:00,220.0,218.0,9.32,10.42,,47.59359,-54.27349
2018-07-08 22:40:00+00:00,220.0,222.0,10.55,11.42,,47.59359,-54.27349
2018-07-08 22:50:00+00:00,221.0,216.0,8.84,10.2,,47.59359,-54.27349
2018-07-08 23:00:00+00:00,223.0,225.0,9.95,10.94,,47.59359,-54.27349
2018-07-08 23:10:00+00:00,225.0,227.0,11.39,12.47,,47.59359,-54.27349
2018-07-08 23:20:00+00:00,222.0,221.0,10.28,11.25,,47.59359,-54.27349
2018-07-08 23:30:00+00:00,223.0,223.0,9.86,10.97,,47.59359,-54.27349
2018-07-08 23:40:00+00:00,225.0,229.0,10.05,11.71,,47.59359,-54.27349
2018-07-08 23:50:00+00:00,219.0,218.0,9.11,10.34,,47.59359,-54.27349
